Time,TemperatureF,DewpointF,PressureIn,WindDirection,WindDirectionDegrees,WindSpeedMPH,WindSpeedGustMPH,Humidity,HourlyPrecipIn,Conditions,Clouds,dailyrainin,SolarRadiationWatts/m^2,SoftwareType,DateUTC
2013-03-08 00:21:00,57.0,57.0,-100.00,SE,140,1.0,7.0,100,0.00,,,0.00,0.000000,,2013-03-08 10:21:00,
2013-03-08 00:31:00,57.0,57.0,-100.00,SE,140,1.0,7.0,100,0.00,,,0.00,0.000000,,2013-03-08 10:31:00,
2013-03-08 00:41:00,57.0,57.0,-100.00,SE,140,1.0,7.0,100,0.00,,,0.00,0.000000,,2013-03-08 10:41:00,
2013-03-08 00:51:00,57.0,57.0,-100.00,SE,140,1.0,7.0,100,0.00,,,0.00,0.000000,,2013-03-08 10:51:00,
2013-03-08 01:21:00,58.0,58.0,-100.00,WSW,247,3.0,3.0,100,0.00,,,0.00,0.000000,,2013-03-08 11:21:00,
2013-03-08 01:32:00,58.0,58.0,-100.00,WSW,247,3.0,3.0,100,0.00,,,0.00,0.000000,,2013-03-08 11:32:00,
2013-03-08 01:41:00,58.0,58.0,-100.00,WSW,247,3.0,3.0,100,0.00,,,0.00,0.000000,,2013-03-08 11:41:00,
2013-03-08 01:52:00,58.0,58.0,-100.00,WSW,247,3.0,3.0,100,0.00,,,0.00,0.000000,,2013-03-08 11:52:00,
2013-03-08 02:22:00,56.0,56.0,-100.00,WSW,254,2.0,5.0,100,0.00,,,0.00,0.000000,,2013-03-08 12:22:00,
2013-03-08 02:32:00,56.0,56.0,-100.00,WSW,254,2.0,5.0,100,0.00,,,0.00,0.000000,,2013-03-08 12:32:00,
2013-03-08 02:42:00,56.0,56.0,-100.00,WSW,254,2.0,5.0,100,0.00,,,0.00,0.000000,,2013-03-08 12:42:00,
2013-03-08 02:52:00,56.0,56.0,-100.00,WSW,254,2.0,5.0,100,0.00,,,0.00,0.000000,,2013-03-08 12:52:00,
2013-03-08 03:21:00,55.0,55.0,-100.00,WSW,247,3.0,6.0,100,0.00,,,0.00,0.000000,,2013-03-08 13:21:00,
2013-03-08 03:32:00,55.0,55.0,-100.00,WSW,247,3.0,6.0,100,0.00,,,0.00,0.000000,,2013-03-08 13:32:00,
2013-03-08 03:42:00,55.0,55.0,-100.00,WSW,247,3.0,6.0,100,0.00,,,0.00,0.000000,,2013-03-08 13:42:00,
2013-03-08 03:52:00,55.0,55.0,-100.00,WSW,247,3.0,6.0,100,0.00,,,0.00,0.000000,,2013-03-08 13:52:00,
2013-03-08 04:22:00,56.0,56.0,-100.00,SW,218,5.0,7.0,100,0.00,,,0.00,0.000000,,2013-03-08 14:22:00,
2013-03-08 04:32:00,56.0,56.0,-100.00,SW,218,5.0,7.0,100,0.00,,,0.00,0.000000,,2013-03-08 14:32:00,
2013-03-08 04:42:00,56.0,56.0,-100.00,SW,218,5.0,7.0,100,0.00,,,0.00,0.000000,,2013-03-08 14:42:00,
2013-03-08 04:52:00,56.0,56.0,-100.00,SW,218,5.0,7.0,100,0.00,,,0.00,0.000000,,2013-03-08 14:52:00,
2013-03-08 05:22:00,53.0,53.0,-100.00,WSW,247,4.0,7.0,100,0.00,,,0.00,0.000000,,2013-03-08 15:22:00,
2013-03-08 05:32:00,53.0,53.0,-100.00,WSW,247,4.0,7.0,100,0.00,,,0.00,0.000000,,2013-03-08 15:32:00,
2013-03-08 05:42:00,53.0,53.0,-100.00,WSW,247,4.0,7.0,100,0.00,,,0.00,0.000000,,2013-03-08 15:42:00,
2013-03-08 05:52:00,53.0,53.0,-100.00,WSW,247,4.0,7.0,100,0.00,,,0.00,0.000000,,2013-03-08 15:52:00,
2013-03-08 06:21:00,52.0,52.0,-100.00,SW,226,4.0,6.0,100,0.00,,,0.00,0.000000,,2013-03-08 16:21:00,
2013-03-08 06:31:00,52.0,52.0,-100.00,SW,226,4.0,6.0,100,0.00,,,0.00,0.000000,,2013-03-08 16:31:00,
2013-03-08 06:42:00,52.0,52.0,-100.00,SW,226,4.0,6.0,100,0.00,,,0.00,0.000000,,2013-03-08 16:42:00,
2013-03-08 06:51:00,52.0,52.0,-100.00,SW,226,4.0,6.0,100,0.00,,,0.00,0.000000,,2013-03-08 16:51:00,
2013-03-08 07:21:00,53.0,53.0,-100.00,WSW,253,2.0,5.0,100,0.00,,,0.00,0.000000,,2013-03-08 17:21:00,
2013-03-08 07:32:00,53.0,53.0,-100.00,WSW,253,2.0,5.0,100,0.00,,,0.00,0.000000,,2013-03-08 17:32:00,
2013-03-08 07:41:00,53.0,53.0,-100.00,WSW,253,2.0,5.0,100,0.00,,,0.00,0.000000,,2013-03-08 17:41:00,
2013-03-08 07:52:00,53.0,53.0,-100.00,WSW,253,2.0,5.0,100,0.00,,,0.00,0.000000,,2013-03-08 17:52:00,
2013-03-08 08:21:00,59.0,59.0,-100.00,SSW,192,1.0,4.0,100,0.00,,,0.00,52.000000,,2013-03-08 18:21:00,
2013-03-08 08:31:00,59.0,59.0,-100.00,SSW,192,1.0,4.0,100,0.00,,,0.00,52.000000,,2013-03-08 18:31:00,
2013-03-08 08:42:00,59.0,59.0,-100.00,SSW,192,1.0,4.0,100,0.00,,,0.00,52.000000,,2013-03-08 18:42:00,
2013-03-08 08:51:00,59.0,59.0,-100.00,SSW,192,1.0,4.0,100,0.00,,,0.00,52.000000,,2013-03-08 18:51:00,
2013-03-08 09:21:00,73.0,63.0,-100.00,ENE,71,2.0,4.0,72,0.00,,,0.00,141.000000,,2013-03-08 19:21:00,
2013-03-08 09:32:00,73.0,63.0,-100.00,ENE,71,2.0,4.0,72,0.00,,,0.00,141.000000,,2013-03-08 19:32:00,
2013-03-08 09:41:00,73.0,63.0,-100.00,ENE,71,2.0,4.0,72,0.00,,,0.00,141.000000,,2013-03-08 19:41:00,
2013-03-08 09:51:00,73.0,63.0,-100.00,ENE,71,2.0,4.0,72,0.00,,,0.00,141.000000,,2013-03-08 19:51:00,
2013-03-08 10:21:00,76.0,64.0,-100.00,East,85,3.0,9.0,66,0.00,,,0.00,193.000000,,2013-03-08 20:21:00,
2013-03-08 10:32:00,76.0,64.0,-100.00,East,85,3.0,9.0,66,0.00,,,0.00,193.000000,,2013-03-08 20:32:00,
2013-03-08 10:41:00,76.0,64.0,-100.00,East,85,3.0,9.0,66,0.00,,,0.00,193.000000,,2013-03-08 20:41:00,
2013-03-08 10:52:00,76.0,64.0,-100.00,East,85,3.0,9.0,66,0.00,,,0.00,193.000000,,2013-03-08 20:52:00,
2013-03-08 11:21:00,77.0,56.0,-100.00,NNE,26,6.0,19.0,49,0.00,,,0.00,404.000000,,2013-03-08 21:21:00,
2013-03-08 11:32:00,77.0,56.0,-100.00,NNE,26,6.0,19.0,49,0.00,,,0.00,404.000000,,2013-03-08 21:32:00,
2013-03-08 11:41:00,77.0,56.0,-100.00,NNE,26,6.0,19.0,49,0.00,,,0.00,404.000000,,2013-03-08 21:41:00,
2013-03-08 11:51:00,77.0,56.0,-100.00,NNE,26,6.0,19.0,49,0.00,,,0.00,404.000000,,2013-03-08 21:51:00,
2013-03-08 12:22:00,79.0,59.0,-100.00,East,99,5.0,23.0,51,0.00,,,0.00,618.000000,,2013-03-08 22:22:00,
2013-03-08 12:32:00,79.0,59.0,-100.00,East,99,5.0,23.0,51,0.00,,,0.00,618.000000,,2013-03-08 22:32:00,
2013-03-08 12:42:00,79.0,59.0,-100.00,East,99,5.0,23.0,51,0.00,,,0.00,618.000000,,2013-03-08 22:42:00,
2013-03-08 12:52:00,79.0,59.0,-100.00,East,99,5.0,23.0,51,0.00,,,0.00,618.000000,,2013-03-08 22:52:00,
2013-03-08 13:21:00,78.0,57.0,-100.00,SW,228,11.0,22.0,49,0.00,,,0.00,768.000000,,2013-03-08 23:21:00,
2013-03-08 13:32:00,78.0,57.0,-100.00,SW,228,11.0,22.0,49,0.00,,,0.00,768.000000,,2013-03-08 23:32:00,
2013-03-08 13:42:00,78.0,57.0,-100.00,SW,228,11.0,22.0,49,0.00,,,0.00,768.000000,,2013-03-08 23:42:00,
2013-03-08 13:52:00,78.0,57.0,-100.00,SW,228,11.0,22.0,49,0.00,,,0.00,768.000000,,2013-03-08 23:52:00,
2013-03-08 14:21:00,78.0,56.0,-100.00,South,183,11.0,22.0,46,0.00,,,-99.99,902.000000,,2013-03-09 00:21:00,
2013-03-08 14:32:00,78.0,56.0,-100.00,South,183,11.0,22.0,46,0.00,,,-99.99,902.000000,,2013-03-09 00:32:00,
2013-03-08 14:42:00,78.0,56.0,-100.00,South,183,11.0,22.0,46,0.00,,,-99.99,902.000000,,2013-03-09 00:42:00,
2013-03-08 14:51:00,78.0,56.0,-100.00,South,183,11.0,22.0,46,0.00,,,-99.99,902.000000,,2013-03-09 00:51:00,
2013-03-08 15:21:00,78.0,57.0,-100.00,SSW,192,9.0,22.0,49,0.00,,,0.00,859.000000,,2013-03-09 01:21:00,
2013-03-08 15:32:00,78.0,57.0,-100.00,SSW,192,9.0,22.0,49,0.00,,,0.00,859.000000,,2013-03-09 01:32:00,
2013-03-08 15:41:00,78.0,57.0,-100.00,SSW,192,9.0,22.0,49,0.00,,,0.00,859.000000,,2013-03-09 01:41:00,
2013-03-08 15:51:00,78.0,57.0,-100.00,SSW,192,9.0,22.0,49,0.00,,,0.00,859.000000,,2013-03-09 01:51:00,
2013-03-08 18:22:00,71.0,60.0,-100.00,SSE,153,6.0,17.0,68,-99.99,,,0.00,414.000000,,2013-03-09 04:22:00,
2013-03-08 18:31:00,71.0,60.0,-100.00,SSE,153,6.0,17.0,68,-99.99,,,0.00,414.000000,,2013-03-09 04:31:00,
2013-03-08 18:41:00,71.0,60.0,-100.00,SSE,153,6.0,17.0,68,-99.99,,,0.00,414.000000,,2013-03-09 04:41:00,
2013-03-08 18:51:00,71.0,60.0,-100.00,SSE,153,6.0,17.0,68,-99.99,,,0.00,414.000000,,2013-03-09 04:51:00,
2013-03-08 19:21:00,69.0,63.0,-100.00,South,178,9.0,20.0,81,0.00,,,0.00,21.000000,,2013-03-09 05:21:00,
2013-03-08 19:31:00,69.0,63.0,-100.00,South,178,9.0,20.0,81,0.00,,,0.00,21.000000,,2013-03-09 05:31:00,
2013-03-08 19:42:00,69.0,63.0,-100.00,South,178,9.0,20.0,81,0.00,,,0.00,21.000000,,2013-03-09 05:42:00,
2013-03-08 19:52:00,69.0,63.0,-100.00,South,178,9.0,20.0,81,0.00,,,0.00,21.000000,,2013-03-09 05:52:00,
2013-03-08 20:22:00,69.0,63.0,-100.00,South,180,9.0,23.0,82,0.00,,,0.00,0.000000,,2013-03-09 06:22:00,
2013-03-08 20:31:00,69.0,63.0,-100.00,South,180,9.0,23.0,82,0.00,,,0.00,0.000000,,2013-03-09 06:31:00,
2013-03-08 20:42:00,69.0,63.0,-100.00,South,180,9.0,23.0,82,0.00,,,0.00,0.000000,,2013-03-09 06:42:00,
2013-03-08 20:51:00,69.0,63.0,-100.00,South,180,9.0,23.0,82,0.00,,,0.00,0.000000,,2013-03-09 06:51:00,
2013-03-08 21:21:00,69.0,63.0,-100.00,South,181,11.0,20.0,80,0.00,,,0.00,0.000000,,2013-03-09 07:21:00,
2013-03-08 21:31:00,69.0,63.0,-100.00,South,181,11.0,20.0,80,0.00,,,0.00,0.000000,,2013-03-09 07:31:00,
2013-03-08 21:41:00,69.0,63.0,-100.00,South,181,11.0,20.0,80,0.00,,,0.00,0.000000,,2013-03-09 07:41:00,
2013-03-08 21:51:00,69.0,63.0,-100.00,South,181,11.0,20.0,80,0.00,,,0.00,0.000000,,2013-03-09 07:51:00,
2013-03-08 22:21:00,70.0,65.0,-100.00,South,176,8.0,17.0,83,0.00,,,0.00,0.000000,,2013-03-09 08:21:00,
2013-03-08 22:31:00,70.0,65.0,-100.00,South,176,8.0,17.0,83,0.00,,,0.00,0.000000,,2013-03-09 08:31:00,
2013-03-08 22:41:00,70.0,65.0,-100.00,South,176,8.0,17.0,83,0.00,,,0.00,0.000000,,2013-03-09 08:41:00,
2013-03-08 22:52:00,70.0,65.0,-100.00,South,176,8.0,17.0,83,0.00,,,0.00,0.000000,,2013-03-09 08:52:00,
2013-03-08 23:21:00,70.0,66.0,-100.00,South,173,9.0,18.0,86,0.00,,,0.00,0.000000,,2013-03-09 09:21:00,
2013-03-08 23:31:00,70.0,66.0,-100.00,South,173,9.0,18.0,86,0.00,,,0.00,0.000000,,2013-03-09 09:31:00,
2013-03-08 23:41:00,70.0,66.0,-100.00,South,173,9.0,18.0,86,0.00,,,0.00,0.000000,,2013-03-09 09:41:00,
2013-03-08 23:52:00,70.0,66.0,-100.00,South,173,9.0,18.0,86,0.00,,,0.00,0.000000,,2013-03-09 09:52:00,